This is the latest recevied weather packets stored in our database for station/object GW4003. If no packets are shown the sender has not sent any weather packets the latest 1 day(s).
| Time | Temp. | Humidity | Pressure | Rain* | Wind** | Luminosity | Snow |
|---|---|---|---|---|---|---|---|
| 1777995828 | 3.33° C | 89% | 1016.1 hPa | 0.25 mm | 0 m/s | - | - |
| 1777995525 | 3.33° C | 89% | 1016.1 hPa | 0.25 mm | 0 m/s | - | - |
| 1777995222 | 3.33° C | 89% | 1016.2 hPa | 0.25 mm | 0.45 m/s, 285° | - | - |
| 1777994919 | 3.33° C | 89% | 1016.1 hPa | 0.25 mm | 0.45 m/s, 29° | - | - |
| 1777994615 | 3.33° C | 89% | 1016.2 hPa | 0.25 mm | 0 m/s | - | - |
| 1777994311 | 3.33° C | 89% | 1016.2 hPa | 0.25 mm | 0.89 m/s, 345° | - | - |
| 1777994008 | 3.33° C | 89% | 1016.2 hPa | 0.25 mm | 0.89 m/s, 298° | - | - |
| 1777993705 | 2.78° C | 89% | 1016.1 hPa | 0.25 mm | 0 m/s | - | - |
| 1777993402 | 3.33° C | 89% | 1016.2 hPa | 0.25 mm | 0.89 m/s, 304° | - | - |
| 1777993099 | 3.33° C | 89% | 1016.2 hPa | 0.25 mm | 0.89 m/s, 309° | - | - |
| 1777992796 | 2.78° C | 89% | 1016.1 hPa | 0.25 mm | 0 m/s | - | - |
| 1777992493 | 2.78° C | 89% | 1016.2 hPa | 0.51 mm | 0.89 m/s, 336° | - | - |
| 1777992190 | 2.78° C | 89% | 1016.2 hPa | 0.25 mm | 1.34 m/s, 322° | - | - |
| 1777991886 | 2.78° C | 89% | 1016.3 hPa | 0.25 mm | 1.34 m/s, 333° | - | - |
| 1777991583 | 2.78° C | 89% | 1016.4 hPa | 0.25 mm | 0.45 m/s, 316° | - | - |
| 1777991280 | 2.78° C | 89% | 1016.4 hPa | 0.25 mm | 0.45 m/s, 313° | - | - |
| 1777990976 | 2.78° C | 89% | 1016.5 hPa | 0.25 mm | 0.89 m/s, 327° | - | - |
| 1777990673 | 2.78° C | 89% | 1016.5 hPa | 0.25 mm | 0.45 m/s, 322° | - | - |
| 1777990369 | 2.78° C | 89% | 1016.4 hPa | 0.25 mm | 0 m/s | - | - |
| 1777990066 | 2.78° C | 89% | 1016.4 hPa | 0.51 mm | 0 m/s | - | - |
| 1777989763 | 2.78° C | 89% | 1016.3 hPa | 0.51 mm | 0.45 m/s, 304° | - | - |
| 1777989460 | 2.78° C | 88% | 1016.3 hPa | 0.51 mm | 0.89 m/s, 284° | - | - |
| 1777989156 | 2.78° C | 88% | 1016.1 hPa | 0.25 mm | 2.24 m/s, 306° | - | - |
| 1777988853 | 2.78° C | 88% | 1016.2 hPa | 0.25 mm | 0 m/s | - | - |
| 1777988553 | 2.78° C | 88% | 1016.2 hPa | 0.25 mm | 0 m/s | - | - |
* Rain latest hour (hover to see other rain measurements)
** Current wind speed in m/s (hover to see current wind gust speed)